Home > Weather > Rygge > Past weeks

Flag for Norway Weather for the Past 2 Weeks in Rygge, Norway

Now
33 °F

Overcast.


Feels Like: 29 °F
Forecast: 25 / 31 °F
Wind: 5 mph from North

Location: Rygge

Current Time: Feb 11, 2016 at 8:36:37 AM

Latest Report: Feb 11, 2016 at 7:00 AM


Visibility: 31 mi

Pressure: 29.41 "Hg

Humidity: 73%

Dew point: 25 °F

Location of RyggeLocation

Historic Weather in Rygge — Graph

°F

Rygge Temperature Yesterday

Maximum temperature yesterday: 37 °F (at 1:00 PM)
Minimum temperature yesterday: 33 °F (at 8:00 PM)
Average temperature yesterday: 35 °F

High & Low Weather Summary for the Past Weeks

 TemperatureHumidityPressure
High43 °F (Jan 28, 1:00 PM)100% (Jan 27, 7:00 AM)29.94 "Hg (Jan 27, 7:00 AM)
Low27 °F (Feb 5, 8:00 AM)46% (Feb 4, 12:00 PM)28.76 "Hg (Feb 2, 7:00 PM)
Average37 °F84%29.27 "Hg
* Reported Jan 27 7:00 AM — Feb 11 7:00 AM, Rygge, Weather by CustomWeather, © 2016

Note: Actual official high and low records may vary slightly from our data, if they occured in-between our weather recording intervals... More about our weather records

Advertising

Rygge Weather History for the Previous 24 Hours

 ConditionsComfort  
Time TempWeatherWind HumidityBarometerVisibility
7:00 AM
Thu, Feb 11
33 °FOvercast.5 mph73%29.41 "Hg31 mi
6:00 AM33 °FOvercast.5 mph73%29.38 "Hg31 mi
5:00 AM34 °FOvercast.5 mph76%29.35 "Hg31 mi
9:00 PM
Wed, Feb 10
33 °FOvercast.5 mph86%29.21 "Hg31 mi
8:00 PM33 °FPassing clouds.3 mph89%29.21 "Hg31 mi
7:00 PM33 °FPassing clouds.3 mph89%29.18 "Hg31 mi
6:00 PM34 °FOvercast.5 mph91%29.18 "Hg31 mi
5:00 PM35 °FOvercast.5 mph92%29.15 "Hg31 mi
4:00 PM35 °FOvercast.5 mph94%29.15 "Hg25 mi
3:00 PM36 °FLow clouds.5 mph96%29.12 "Hg6 mi
2:00 PM36 °FLow clouds.3 mph96%29.09 "Hg9 mi
1:00 PM37 °FLow clouds.3 mph97%29.06 "Hg22 mi
12:00 PM37 °FLow clouds.3 mph99%29.06 "Hg25 mi
11:00 AM36 °FDrizzle. Low clouds.3 mph100%29.06 "Hg3 mi
10:00 AM36 °FFog.3 mph99%29.06 "Hg2 mi
9:00 AM35 °FFog.3 mph100%29.03 "Hg2 mi
8:00 AM35 °FFog.3 mph99%29.03 "Hg2 mi
Weather by CustomWeather, © 2016

See weather overviewHow to use our weather pages